Location: Skalnate Pleso
(49.1889°N, 20.2450°E)
Time: 13:37:16
(UTC+02:00)

COSMOS 2428 - Pass Details

Date: 23 February 2020
Orbit: 846 x 856 km, 70.9° (Epoch: 05 April)

Event Time Altitude Azimuth Distance (km) Brightness Sun altitude
Exits shadow 02:34:47 19° 6° (N) 1,955 4.9 -38.4°
Drops below altitude 10° 02:36:31 10° 17° (NNE) 2,500 5.6 -38.2°
Sets 02:39:13 0° 26° (NNE) 3,440 6.6 -37.8°
